Location: *
(49.5652°S, 177.6126°W)
Time: 09:26:09
(UTC+00:00)

Daily predictions for brighter satellites

Satellite Brightness Start Highest point End
(mag) Time Altitude Azimuth Time Altitude Azimuth Time Altitude Azimuth
Cosmos 1943 Rocket 3.6 12:11:33 10° SW 12:14:37 32° SW 12:14:37 32° SW
NOSS 3-4 (A) 4.2 12:16:02 63° W 12:17:17 71° SW 12:25:12 10° SE
NOSS 3-4 (C) 4.2 12:16:10 63° W 12:17:23 71° SW 12:25:18 10° SE
ADEOS II 3.3 12:19:14 37° SE 12:19:14 37° SE 12:23:18 10° S
ATLAS 3B R/B 4.2 12:19:26 10° SW 12:25:00 30° SSE 12:30:25 10° E
USA 234 3.4 12:31:54 64° SW 12:31:54 64° SW 12:37:23 10° WSW
SeaSat 1 3.7 12:35:11 38° S 12:35:11 38° S 12:38:29 10° SSW
ATLAS CENTAUR R/B 4.4 12:35:20 34° E 12:35:20 34° E 12:42:29 10° ESE
ATLAS 5 CENTAUR R/B 4.4 12:36:59 10° SW 12:42:30 26° SSE 12:47:16 10° ESE
NOSS 3-1 (C) 4.4 12:37:42 10° SW 12:44:31 46° SSE 12:46:37 34° E
COSMOS 2428 4.4 12:46:06 25° SW 12:46:51 26° SW 12:51:36 10° SSE
Meteor 1-24 Rocket 4.4 12:49:59 54° SE 12:49:59 54° SE 12:55:02 10° SSE
GEOS 3 Rocket 4.5 12:45:40 10° SE 12:49:31 48° SSE 12:49:31 48° SSE
Lacrosse 4 Rocket 4.2 12:51:25 14° SSW 12:51:38 14° SSW 12:53:53 10° S
MSX 4.5 12:54:05 51° SSW 12:54:05 51° SSW 12:58:26 10° SSW
Cosmos 2237 Rocket 3.2 12:54:47 42° SW 12:54:47 42° SW 12:59:38 10° SSE
Meteor 2-5 Rocket 4.2 13:05:00 62° SSE 13:05:00 62° SSE 13:10:00 10° SSE
IDEFIX/ARIANE 42P 3.9 13:06:38 32° SW 13:06:38 32° SW 13:09:36 10° SSW
Resurs 1-4 Rocket 3.3 13:07:54 36° SW 13:07:54 36° SW 13:11:09 10° SSW
SL-16 R/B 2.6 13:14:09 60° SSE 13:14:09 60° SSE 13:18:52 10° SSE
ATLAS 2AS CENTAUR R/B 3.4 13:16:52 41° ENE 13:16:52 41° ENE 13:22:55 10° SE
Cosmos 2369 Rocket 3.1 13:14:24 10° SSW 13:18:07 42° SW 13:18:07 42° SW
CZ-2C R/B 3.8 13:23:01 47° S 13:23:01 47° S 13:26:45 10° SSW
Cosmos 2218 Rocket 4.1 13:21:42 72° E 13:21:42 72° E 13:28:05 10° SSE
CZ-2D R/B 3.6 13:31:45 28° SW 13:31:45 28° SW 13:34:41 10° SSW
Cosmos 1943 3.8 13:35:19 50° E 13:35:19 50° E 13:40:15 10° SE
Cosmos 1959 Rocket 4.4 13:35:00 82° SE 13:35:00 82° SE 13:41:02 10° S
Cosmos 2341 Rocket 4.0 13:36:05 73° SW 13:36:05 73° SW 13:42:11 10° S
Cosmos 1727 Rocket 4.1 13:30:01 10° S 13:36:15 66° ESE 13:36:52 62° ENE
USA 267 3.3 13:30:41 10° ESE 13:37:18 76° SSW 13:38:12 66° W
NOSS 3-1 (A) 4.1 13:38:01 10° SW 13:44:55 54° SE 13:50:26 10° ENE
CZ-4 R/B 4.4 13:49:40 55° S 13:49:40 55° S 13:53:27 10° SSW
Cosmos 1975 Rocket 4.4 13:49:56 36° ESE 13:49:56 36° ESE 13:53:27 10° SSE
ALOS 3.3 13:51:19 39° SSW 13:51:19 39° SSW 13:54:19 10° SSW
Cosmos 614 Rocket 4.3 13:50:18 66° SE 13:50:18 66° SE 13:54:57 10° SSE
Cosmos 864 Rocket 4.5 13:54:10 69° WSW 13:54:10 69° WSW 14:00:27 10° S
USA 81 4.4 13:49:01 10° S 13:53:25 58° SSW 13:53:25 58° SSW
ADEOS II 3.6 14:00:08 26° SW 14:00:08 26° SW 14:02:53 10° SSW
RESURS DK-1 4.3 14:05:43 22° SSW 14:05:43 22° SSW 14:08:13 10° S
Lacrosse 5 2.7 14:05:38 43° ENE 14:05:38 43° ENE 14:09:46 10° ESE
NOAA 11 4.5 14:04:28 49° NE 14:05:45 64° ESE 14:11:14 10° S
SL-8 Rocket 4.4 14:13:03 45° WSW 14:13:09 45° WSW 14:19:09 10° S
Cosmos 2366 rocket 4.3 14:15:15 49° W 14:15:33 50° WSW 14:21:49 10° S
ATLAS 3B R/B 2.5 14:10:12 10° SW 14:16:33 80° SE 14:22:51 10° NE
H-2A R/B 4.0 14:15:38 10° ENE 14:19:44 26° ESE 14:23:56 10° S
Cosmos 1375 Rocket 4.4 14:20:49 65° NW 14:21:51 85° SW 14:28:18 10° SE
Cosmos 2123 Rocket 4.2 14:16:33 10° S 14:22:54 69° ESE 14:26:02 31° NNE
ATLAS 5 CENTAUR R/B 2.8 14:21:51 10° SW 14:28:02 55° SE 14:32:59 10° ENE
IRS-1D 3.3 14:28:48 80° NNW 14:29:01 83° WNW 14:34:13 10° SSW
Meteor 2-13 Rocket 4.3 14:24:24 10° SSW 14:30:34 76° W 14:31:45 59° NNW
CZ-2C R/B 4.0 14:26:23 10° SSE 14:31:08 33° E 14:33:59 20° NE
SL-08 R/B 4.5 14:30:58 55° NNW 14:32:32 82° W 14:39:09 10° S
Thor Agena Rocket 3.6 14:33:36 59° WSW 14:33:36 59° WSW 14:38:13 10° SSW
CZ-2C R/B 2.4 14:33:16 74° NW 14:33:34 77° WNW 14:38:50 10° SSW
ATLAS CENTAUR R/B 3.7 14:31:47 44° WNW 14:34:29 78° SSW 14:46:33 10° ESE
NOSS 3-1 (C) 3.9 14:29:11 10° SW 14:33:51 40° WSW 14:33:51 40° WSW
Cosmos 1484 Rocket 4.3 14:36:33 20° ENE 14:38:31 33° ESE 14:41:56 10° S
Envisat 3.1 14:40:58 58° W 14:40:58 58° W 14:45:52 10° SSW
DNEPR-1 R/B 4.3 14:41:54 38° NE 14:42:01 38° ENE 14:45:54 10° SE
CBERS-1 4.5 14:38:11 16° NE 14:42:16 60° ESE 14:47:23 10° S
Cosmos 1140 Rocket 3.9 14:44:19 42° NNE 14:45:51 58° ENE 14:51:03 10° SSE
BlueWalker 3 2.2 14:47:49 68° SSE 14:47:49 68° SSE 14:51:27 10° ESE
Cosmos 1821 Rocket 4.2 14:46:30 45° WNW 14:47:34 50° WSW 14:53:38 10° S
Cosmos 1025 Rocket 4.1 14:48:29 33° SW 14:48:29 33° SW 14:51:52 10° S
Cosmos 405 Rocket 4.2 14:48:09 10° SSW 14:49:53 25° SSW 14:49:53 25° SSW
Cosmos 1603 3.8 14:51:09 51° WNW 14:52:28 68° WSW 14:58:17 10° SSE
Cosmos 220 Rocket 3.9 14:53:18 73° N 14:53:41 85° ENE 14:58:08 10° SSE
PAYLOAD A 4.0 14:55:53 54° WNW 14:56:10 55° W 15:01:07 10° SSW
Cosmos 2228 3.0 14:52:22 10° S 14:56:42 76° E 14:58:03 43° NNE
SL-16 R/B 3.9 14:56:01 18° WSW 14:58:06 21° SW 15:02:26 10° S
MOZ.5/SAFIR/RUBIN 5/SL-8 4.0 14:54:33 10° S 14:59:14 51° WSW 14:59:43 49° W
Cosmos 1825 4.1 15:03:24 17° SW 15:03:24 17° SW 15:04:52 10° SSW
Cosmos 1934 Rocket 3.9 15:01:05 38° NNW 15:03:37 79° W 15:09:54 10° S
Cosmos 1763 Rocket 4.2 14:58:48 10° SSW 15:04:07 55° ESE 15:09:20 10° NE
YAOGAN 6 4.4 15:08:17 19° SW 15:08:17 19° SW 15:09:29 10° SSW
ATLAS 2AS CENTAUR R/B 3.0 15:04:17 34° WNW 15:07:12 59° SW 15:14:14 10° SE
Cosmos 1833 Rocket 4.4 15:08:50 10° NNE 15:13:32 28° ENE 15:18:16 10° SE
Cosmos 1943 4.2 15:17:07 27° W 15:19:01 34° SW 15:24:11 10° SSE
USA 267 4.0 15:13:37 10° ESE 15:19:55 49° S 15:25:31 13° WSW
Cosmos 1023 Rocket 4.5 15:18:00 39° NW 15:20:01 75° WSW 15:25:20 10° SSE
Cosmos 1697 Rocket 3.8 15:15:35 10° SSW 15:21:03 46° SE 15:26:28 10° NE
SL-16 R/B 3.0 15:16:43 10° SSE 15:23:01 62° ENE 15:29:04 11° N
Meteor 1-28 Rocket 3.0 15:23:01 10° SSE 15:26:45 87° ENE 15:27:57 41° NNW
Cosmos 1975 Rocket 4.3 15:27:02 25° WSW 15:27:15 26° WSW 15:30:59 10° SSW
Cosmos 1869 3.6 15:27:21 10° SSW 15:31:12 43° W 15:31:36 42° WNW
Cosmos 1606 2.8 15:31:24 10° SSW 15:34:57 45° W 15:35:15 44° WNW
USA 229 DEB 3.5 15:28:31 10° SW 15:35:22 89° NW 15:41:34 10° NE
USA 229 3.5 15:28:39 10° SW 15:35:29 89° NW 15:41:40 10° NE
NOSS 3-1 (A) 3.6 15:29:39 10° SW 15:35:33 39° WNW 15:40:27 10° N
Intercosmos 25 3.8 15:32:26 10° N 15:37:04 62° E 15:40:31 10° SSE
Cosmos 2360 4.4 15:33:08 10° SSW 15:38:57 77° ESE 15:44:44 10° NNE
Cosmos 1238 Rocket 4.4 15:35:08 10° S 15:40:40 59° ESE 15:46:32 10° NNE
Cosmos 1656 3.6 15:36:02 10° SSW 15:41:36 65° WNW 15:47:12 10° NNE
Lacrosse 5 2.3 15:44:50 24° W 15:47:50 56° SSW 15:52:55 10° SE
Cosmos 1726 Rocket 3.6 15:45:20 10° S 15:49:46 83° E 15:54:11 10° N
Cosmos 1536 Rocket 3.9 15:48:30 27° NW 15:50:32 47° WSW 15:54:52 10° S
Meteor 1-27 4.3 15:45:49 10° SSW 15:51:31 60° W 15:57:14 10° N
Cosmos 2251 Rocket 3.6 15:49:13 23° NW 15:52:29 63° WSW 15:57:50 10° SSE
SL-4 R/B 2.5 15:54:17 29° NW 15:54:26 29° NW 15:57:30 10° NNE
IRS-1C 4.1 15:49:34 10° N 15:54:56 74° WNW 16:00:22 10° SSW
Cosmos 468 Rocket 4.0 15:52:36 10° SSW 15:57:59 82° WNW 16:03:16 10° NNE
ARIANE 5 R/B 2.5 15:53:35 10° N 15:58:49 74° WNW 16:04:10 10° SSW
H-2A R/B 2.1 15:54:02 10° N 15:58:51 50° W 16:03:48 10° SSW
Cosmos 1459 Rocket 4.4 15:54:01 10° N 16:00:00 63° E 16:06:04 10° SSE
ERS-1 4.4 15:55:24 10° NNE 16:00:24 80° WNW 16:05:29 10° SSW
Cosmos 540 Rocket 3.4 15:56:02 10° SSW 16:01:17 76° WNW 16:06:27 10° NNE
H-2A R/B 2.7 16:01:00 10° N 16:04:23 45° W 16:07:48 10° SSW
ATLAS 3B R/B 3.4 16:01:39 10° WSW 16:06:31 24° WNW 16:11:25 10° NNW
Gbstr 26 Del rocket 4.0 16:01:56 18° NW 16:06:56 64° NNE 16:12:20 10° ESE
NOAA 12 4.2 16:02:26 10° NNE 16:07:46 85° ESE 16:13:09 10° SSW
ARGOS 3.1 16:05:17 10° NNE 16:10:43 83° WNW 16:16:13 10° SSW
CZ-2C R/B 3.1 16:06:34 10° S 16:11:28 41° WSW 16:15:28 15° NW
ATLAS 5 CENTAUR R/B 2.5 16:06:41 10° SW 16:11:51 34° WNW 16:16:05 10° N
Cosmos 1484 Rocket 3.9 16:11:23 20° WNW 16:12:28 22° W 16:15:29 10° SW
CZ-2C R/B 4.4 16:12:35 12° W 16:12:35 12° W 16:14:36 10° WSW
Cosmos 1892 Rocket 3.5 16:09:43 10° N 16:14:08 89° W 16:18:36 10° S
Cosmos 676 Rocket 4.1 16:13:45 10° NNW 16:19:07 85° ENE 16:24:33 10° SSE
USA 32 4.4 16:14:55 10° S 16:20:15 71° E 16:25:31 10° NNE
IRS-P3 4.2 16:16:24 10° N 16:21:39 55° WNW 16:26:59 10° SSW
Cosmos 407 Rocket 4.2 16:18:56 15° WNW 16:22:54 37° WSW 16:27:49 10° SSE
BlueWalker 3 2.8 16:22:21 10° WSW 16:26:10 48° S 16:29:59 10° ESE
SJ-6F 4.5 16:22:15 10° NNE 16:26:24 88° E 16:30:34 10° SSW
Cosmos 1606 Rocket 4.3 16:22:59 10° SSW 16:26:57 32° W 16:30:53 10° NNW
Cosmos 2100 Rocket 4.1 16:23:13 10° NNW 16:29:38 77° W 16:36:07 10° S
Cosmos 2058 Rocket 3.1 16:28:43 10° SSW 16:33:12 67° W 16:37:41 10° N
Cosmos 1939 Rocket 3.9 16:31:39 10° NNW 16:34:51 24° W 16:38:03 10° SW
Cosmos 1980 Rocket 2.5 16:29:05 10° SSW 16:34:52 76° ESE 16:40:33 10° NE
SJ-11-01 4.3 16:31:59 10° NNE 16:36:44 88° W 16:41:34 10° SSW
Cosmos 841 Rocket 3.5 16:36:38 10° SSW 16:41:57 72° WNW 16:47:13 10° NNE
Cosmos 44 3.6 16:39:24 10° SW 16:43:55 69° SE 16:48:41 10° NE
SL-24 R/B - RUBIN 2 3.9 16:40:42 10° NNW 16:45:43 76° NE 16:50:14 10° SE
Cosmos 1812 2.5 16:43:02 10° SSW 16:46:45 74° W 16:50:26 10° N
Cosmos 2058 2.9 16:43:43 10° N 16:47:51 84° W 16:52:01 10° S
Cosmos-2242 3.3 16:45:41 10° S 16:50:00 74° ESE 16:54:18 10° NNE
Tsikada Rocket 4.2 16:45:17 10° S 16:51:41 84° E 16:58:05 10° N
Cosmos 2233 Rocket 4.5 16:46:22 10° N 16:52:29 68° E 16:58:42 10° SSE
Spot 4 Rocket 4.1 16:48:02 10° N 16:53:10 61° WNW 16:58:22 10° SSW
SMAP 3.7 16:49:37 10° NNE 16:54:16 66° ESE 16:59:00 10° S
Cosmos 1437 Rocket 3.5 16:51:08 10° N 16:54:53 57° E 16:58:47 10° SSE
Cosmos 1802 Rocket 4.1 16:49:52 10° NNW 16:56:05 69° WSW 17:02:29 10° S
SL-16 R/B 4.1 16:51:19 10° SSW 16:56:34 35° SE 17:01:46 10° ENE
Cosmos 1833 Rocket 2.9 16:51:33 10° NW 16:57:07 57° SW 17:02:45 10° SSE
